Location: Eferding
(48.3167°N, 14.0167°E)
Time: 20:43:58
(UTC+00:00)

USA 215 - Pass Details

Date: 12 November 2019
Orbit: 1101 x 1107 km, 123.0° (Epoch: 02 December)

Event Time Altitude Azimuth Distance (km) Brightness Sun altitude
Exits shadow 18:21:37 56° 153° (SSE) 1,288 3.3 -28.6°
Maximum altitude 18:23:02 74° 218° (SW) 1,143 3.3 -28.9°
Drops below altitude 10° 18:29:35 10° 303° (WNW) 2,964 6.3 -29.9°
Sets 18:32:05 0° 306° (NW) 3,924 7.0 -30.4°
